| time (UTC) | temp F | wind direction | speed MPH | gust MPH | rain 1hr in | rain 24hr in | rain mn in | humidity % | barometer mb |
| 20260507182150 | 64 | 329 | 7.0 | 16.0 | 0.00 | 0.35 | 0.29 | 42 | 1006.2 |
| 20260507181635 | 65 | 281 | 5.0 | 14.0 | 0.00 | 0.35 | 0.29 | 43 | 1006.1 |
| 20260507181125 | 65 | 281 | 4.0 | 13.0 | 0.00 | 0.35 | 0.29 | 45 | 1006.2 |
| 20260507180636 | 64 | 223 | 5.0 | 18.0 | 0.00 | 0.35 | 0.29 | 42 | 1006.2 |
| 20260507180139 | 64 | 355 | 6.0 | 18.0 | 0.00 | 0.35 | 0.29 | 46 | 1006.2 |
| 20260507175635 | 64 | 289 | 4.0 | 17.0 | 0.00 | 0.35 | 0.29 | 45 | 1006.3 |
| 20260507175122 | 64 | 339 | 10.0 | 17.0 | 0.00 | 0.35 | 0.29 | 45 | 1006.5 |
| 20260507174650 | 64 | 351 | 10.0 | 17.0 | 0.00 | 0.35 | 0.29 | 45 | 1006.3 |
| 20260507174145 | 63 | 241 | 9.0 | 18.0 | 0.00 | 0.35 | 0.29 | 43 | 1006.2 |
| 20260507173623 | 63 | 290 | 7.0 | 18.0 | 0.00 | 0.35 | 0.29 | 44 | 1006.4 |
| 20260507173136 | 63 | 150 | 8.0 | 14.0 | 0.00 | 0.35 | 0.29 | 40 | 1006.5 |
| 20260507172625 | 63 | 296 | 4.0 | 14.0 | 0.00 | 0.35 | 0.29 | 39 | 1006.4 |
| 20260507172202 | 63 | 315 | 6.0 | 17.0 | 0.00 | 0.35 | 0.29 | 43 | 1006.5 |
| 20260507171713 | 63 | 273 | 6.0 | 17.0 | 0.00 | 0.35 | 0.29 | 42 | 1006.6 |
| 20260507171124 | 63 | 331 | 4.0 | 16.0 | 0.00 | 0.35 | 0.29 | 44 | 1006.7 |
| 20260507170640 | 63 | 5 | 6.0 | 16.0 | 0.00 | 0.35 | 0.29 | 41 | 1006.7 |
| 20260507170128 | 63 | 31 | 7.0 | 18.0 | 0.00 | 0.35 | 0.29 | 44 | 1006.8 |
| 20260507165628 | 63 | 315 | 6.0 | 18.0 | 0.00 | 0.35 | 0.29 | 47 | 1006.9 |
| 20260507165138 | 62 | 333 | 5.0 | 23.0 | 0.00 | 0.35 | 0.29 | 46 | 1006.8 |
| 20260507164632 | 63 | 276 | 9.0 | 23.0 | 0.00 | 0.35 | 0.29 | 46 | 1006.9 |
| 20260507164156 | 63 | 290 | 8.0 | 15.0 | 0.00 | 0.35 | 0.29 | 47 | 1006.9 |
| 20260507163628 | 62 | 314 | 6.0 | 15.0 | 0.00 | 0.35 | 0.29 | 53 | 1007.0 |
| 20260507163149 | 62 | 231 | 4.0 | 18.0 | 0.00 | 0.35 | 0.29 | 52 | 1007.0 |
| 20260507162637 | 63 | 291 | 8.0 | 18.0 | 0.00 | 0.35 | 0.29 | 54 | 1006.9 |
| 20260507162128 | 63 | 317 | 10.0 | 17.0 | 0.00 | 0.35 | 0.29 | 52 | 1006.9 |
| 20260507161651 | 63 | 238 | 7.0 | 15.0 | 0.00 | 0.35 | 0.29 | 54 | 1007.0 |
| 20260507161142 | 63 | 12 | 4.0 | 15.0 | 0.00 | 0.35 | 0.29 | 59 | 1007.0 |
| 20260507160632 | 63 | 42 | 5.0 | 16.0 | 0.00 | 0.35 | 0.29 | 58 | 1007.0 |
| 20260507160151 | 63 | 303 | 5.0 | 18.0 | 0.00 | 0.35 | 0.29 | 60 | 1007.2 |
| 20260507155640 | 62 | 330 | 6.0 | 18.0 | 0.00 | 0.35 | 0.29 | 60 | 1007.1 |
| 20260507155146 | 62 | 360 | 5.0 | 15.0 | 0.00 | 0.35 | 0.29 | 60 | 1007.3 |
| 20260507154649 | 61 | 325 | 8.0 | 13.0 | 0.00 | 0.35 | 0.29 | 65 | 1007.3 |
| 20260507154137 | 61 | 39 | 1.0 | 11.0 | 0.00 | 0.35 | 0.29 | 63 | 1007.3 |
| 20260507153659 | 61 | 209 | 5.0 | 12.0 | 0.00 | 0.35 | 0.29 | 67 | 1007.5 |
| 20260507153125 | 61 | 273 | 3.0 | 15.0 | 0.00 | 0.35 | 0.29 | 63 | 1007.6 |
| 20260507152635 | 60 | 268 | 6.0 | 15.0 | 0.00 | 0.35 | 0.29 | 64 | 1007.6 |
| 20260507152142 | 61 | 13 | 4.0 | 15.0 | 0.00 | 0.35 | 0.29 | 61 | 1007.6 |
| 20260507151632 | 61 | 310 | 8.0 | 15.0 | 0.00 | 0.35 | 0.29 | 66 | 1007.6 |
| 20260507151135 | 60 | 77 | 2.0 | 16.0 | 0.00 | 0.35 | 0.29 | 63 | 1007.5 |
| 20260507150623 | 60 | 321 | 7.0 | 15.0 | 0.00 | 0.35 | 0.29 | 63 | 1007.6 |
| 20260507150127 | 60 | 293 | 7.0 | 15.0 | 0.00 | 0.35 | 0.29 | 68 | 1007.6 |
| 20260507145637 | 60 | 326 | 6.0 | 14.0 | 0.00 | 0.35 | 0.29 | 68 | 1007.7 |
| 20260507145126 | 60 | 334 | 7.0 | 11.0 | 0.00 | 0.35 | 0.29 | 70 | 1007.7 |
| 20260507144630 | 59 | 333 | 3.0 | 13.0 | 0.00 | 0.35 | 0.29 | 71 | 1007.8 |
| 20260507144141 | 59 | 345 | 3.0 | 13.0 | 0.00 | 0.35 | 0.29 | 73 | 1007.8 |
| 20260507143633 | 59 | 303 | 6.0 | 10.0 | 0.00 | 0.35 | 0.29 | 74 | 1007.8 |
| 20260507143125 | 58 | 335 | 5.0 | 10.0 | 0.00 | 0.35 | 0.29 | 76 | 1007.8 |
| 20260507142628 | 58 | 339 | 1.0 | 9.0 | 0.00 | 0.35 | 0.29 | 73 | 1007.9 |
| 20260507142141 | 58 | 237 | 2.0 | 9.0 | 0.00 | 0.35 | 0.29 | 75 | 1007.9 |
| 20260507141627 | 58 | 32 | 4.0 | 9.0 | 0.00 | 0.35 | 0.29 | 76 | 1008.0 |
| 20260507141134 | 57 | 355 | 5.0 | 9.0 | 0.00 | 0.35 | 0.29 | 81 | 1007.9 |
| 20260507140625 | 56 | 257 | 0.0 | 10.0 | 0.00 | 0.35 | 0.29 | 78 | 1008.0 |
| 20260507140134 | 56 | 298 | 3.0 | 8.0 | 0.00 | 0.35 | 0.29 | 81 | 1008.1 |
| 20260507135656 | 56 | 283 | 1.0 | 11.0 | 0.00 | 0.35 | 0.29 | 77 | 1008.0 |
| 20260507135137 | 56 | 328 | 5.0 | 11.0 | 0.00 | 0.35 | 0.29 | 81 | 1008.1 |
| 20260507134647 | 56 | 293 | 3.0 | 10.0 | 0.00 | 0.35 | 0.29 | 82 | 1008.0 |
| 20260507134135 | 55 | 200 | 3.0 | 11.0 | 0.00 | 0.35 | 0.29 | 83 | 1008.1 |
| 20260507133626 | 55 | 278 | 5.0 | 13.0 | 0.00 | 0.35 | 0.29 | 82 | 1008.2 |
| 20260507133150 | 55 | 315 | 6.0 | 13.0 | 0.00 | 0.35 | 0.29 | 83 | 1008.2 |
| 20260507132639 | 55 | 238 | 3.0 | 10.0 | 0.00 | 0.35 | 0.29 | 87 | 1008.2 |
| 20260507132122 | 54 | 360 | 2.0 | 11.0 | 0.00 | 0.35 | 0.29 | 88 | 1008.1 |
| 20260507131629 | 54 | 263 | 3.0 | 13.0 | 0.00 | 0.35 | 0.29 | 91 | 1008.1 |
| 20260507131135 | 53 | 304 | 5.0 | 13.0 | 0.00 | 0.35 | 0.29 | 89 | 1008.0 |
| 20260507130628 | 52 | 12 | 5.0 | 11.0 | 0.00 | 0.35 | 0.29 | 91 | 1008.1 |
| 20260507130136 | 52 | 15 | 3.0 | 12.0 | 0.00 | 0.35 | 0.29 | 92 | 1008.2 |
| 20260507125655 | 52 | 19 | 4.0 | 12.0 | 0.00 | 0.35 | 0.29 | 92 | 1008.3 |
| 20260507125130 | 52 | 355 | 6.0 | 12.0 | 0.00 | 0.35 | 0.29 | 94 | 1008.2 |
| 20260507124653 | 51 | 334 | 4.0 | 14.0 | 0.00 | 0.35 | 0.29 | 95 | 1008.1 |
| 20260507124140 | 51 | 313 | 4.0 | 14.0 | 0.00 | 0.35 | 0.29 | 96 | 1008.1 |
| 20260507123627 | 50 | 305 | 1.0 | 10.0 | 0.00 | 0.35 | 0.29 | 96 | 1008.1 |
| 20260507123149 | 50 | 314 | 5.0 | 9.0 | 0.00 | 0.35 | 0.29 | 95 | 1008.2 |
| 20260507122632 | 50 | 290 | 1.0 | 5.0 | 0.00 | 0.35 | 0.29 | 96 | 1008.2 |
| 20260507122154 | 50 | 355 | 2.0 | 7.0 | 0.00 | 0.35 | 0.29 | 96 | 1008.4 |
| 20260507121626 | 50 | 300 | 1.0 | 7.0 | 0.01 | 0.35 | 0.29 | 95 | 1008.5 |
| 20260507121140 | 50 | 284 | 2.0 | 4.0 | 0.01 | 0.35 | 0.29 | 95 | 1008.5 |
| 20260507120632 | 49 | 277 | 1.0 | 4.0 | 0.01 | 0.35 | 0.29 | 96 | 1008.5 |
| 20260507120130 | 49 | 298 | 2.0 | 4.0 | 0.01 | 0.35 | 0.29 | 95 | 1008.3 |
| 20260507115621 | 49 | 290 | 1.0 | 3.0 | 0.01 | 0.35 | 0.29 | 96 | 1008.0 |
| 20260507115205 | 49 | 277 | 0.0 | 3.0 | 0.02 | 0.35 | 0.29 | 96 | 1008.1 |
| 20260507114631 | 49 | 274 | 1.0 | 3.0 | 0.02 | 0.35 | 0.29 | 95 | 1008.2 |
| 20260507114137 | 49 | 313 | 1.0 | 3.0 | 0.02 | 0.35 | 0.29 | 95 | 1008.1 |
| 20260507113700 | 49 | 282 | 2.0 | 3.0 | 0.02 | 0.35 | 0.29 | 95 | 1008.0 |
| 20260507113147 | 49 | 276 | 0.0 | 3.0 | 0.03 | 0.35 | 0.29 | 95 | 1008.0 |
| 20260507112633 | 48 | 276 | 0.0 | 3.0 | 0.04 | 0.35 | 0.29 | 95 | 1008.2 |
| 20260507112141 | 48 | 276 | 0.0 | 3.0 | 0.05 | 0.35 | 0.29 | 95 | 1008.1 |
| 20260507111628 | 48 | 275 | 1.0 | 3.0 | 0.05 | 0.34 | 0.28 | 95 | 1008.0 |
| 20260507111145 | 48 | 265 | 0.0 | 2.0 | 0.06 | 0.34 | 0.28 | 95 | 1007.8 |
| 20260507110651 | 48 | 265 | 0.0 | 3.0 | 0.06 | 0.34 | 0.28 | 95 | 1007.8 |
| 20260507110159 | 48 | 326 | 1.0 | 3.0 | 0.07 | 0.34 | 0.28 | 95 | 1008.0 |
| 20260507105640 | 48 | 326 | 1.0 | 3.0 | 0.07 | 0.34 | 0.28 | 95 | 1007.8 |
| 20260507105131 | 48 | 360 | 0.0 | 4.0 | 0.06 | 0.33 | 0.27 | 95 | 1007.9 |
| 20260507104637 | 48 | 360 | 1.0 | 8.0 | 0.06 | 0.33 | 0.27 | 95 | 1007.5 |
| 20260507104123 | 48 | 355 | 1.0 | 8.0 | 0.06 | 0.33 | 0.27 | 94 | 1007.5 |
| 20260507103630 | 48 | 334 | 2.0 | 9.0 | 0.07 | 0.33 | 0.27 | 95 | 1007.5 |
| 20260507103123 | 48 | 333 | 2.0 | 9.0 | 0.06 | 0.32 | 0.26 | 94 | 1007.6 |
| 20260507102632 | 48 | 342 | 2.0 | 5.0 | 0.05 | 0.31 | 0.25 | 94 | 1007.6 |
| 20260507102131 | 48 | 360 | 1.0 | 5.0 | 0.04 | 0.30 | 0.24 | 94 | 1007.9 |
| 20260507101622 | 48 | 326 | 1.0 | 6.0 | 0.02 | 0.28 | 0.22 | 94 | 1007.9 |
| 20260507101128 | 48 | 5 | 3.0 | 6.0 | 0.02 | 0.28 | 0.22 | 94 | 1007.9 |
| 20260507100631 | 48 | 307 | 1.0 | 8.0 | 0.03 | 0.28 | 0.22 | 94 | 1007.9 |
| 20260507100136 | 48 | 351 | 2.0 | 8.0 | 0.02 | 0.27 | 0.21 | 94 | 1007.8 |
| 20260507095623 | 48 | 12 | 3.0 | 10.0 | 0.02 | 0.27 | 0.21 | 94 | 1007.6 |
| 20260507095202 | 48 | 344 | 2.0 | 9.0 | 0.02 | 0.27 | 0.21 | 94 | 1007.6 |
| 20260507094633 | 48 | 344 | 2.0 | 9.0 | 0.02 | 0.27 | 0.21 | 94 | 1007.6 |
| 20260507094137 | 48 | 5 | 3.0 | 10.0 | 0.02 | 0.27 | 0.21 | 94 | 1007.7 |
| 20260507093629 | 49 | 342 | 4.0 | 10.0 | 0.01 | 0.26 | 0.20 | 94 | 1007.2 |
| 20260507093137 | 49 | 9 | 3.0 | 11.0 | 0.01 | 0.26 | 0.20 | 94 | 1007.3 |
| 20260507092626 | 49 | 311 | 4.0 | 11.0 | 0.02 | 0.26 | 0.20 | 94 | 1007.3 |
| 20260507092130 | 49 | 350 | 4.0 | 8.0 | 0.02 | 0.26 | 0.20 | 94 | 1007.3 |
| 20260507091640 | 49 | 336 | 2.0 | 8.0 | 0.02 | 0.26 | 0.20 | 94 | 1007.2 |
| 20260507091130 | 49 | 5 | 2.0 | 10.0 | 0.03 | 0.26 | 0.20 | 93 | 1007.1 |
| 20260507090643 | 49 | 5 | 2.0 | 10.0 | 0.03 | 0.25 | 0.19 | 94 | 1007.1 |
| 20260507090144 | 49 | 5 | 3.0 | 9.0 | 0.04 | 0.25 | 0.19 | 93 | 1007.3 |
| 20260507085645 | 49 | 277 | 2.0 | 10.0 | 0.04 | 0.25 | 0.19 | 94 | 1007.4 |
| 20260507085134 | 49 | 355 | 3.0 | 10.0 | 0.05 | 0.25 | 0.19 | 94 | 1006.6 |
| 20260507084626 | 49 | 355 | 4.0 | 10.0 | 0.06 | 0.25 | 0.19 | 93 | 1006.8 |
| 20260507084152 | 49 | 321 | 5.0 | 10.0 | 0.08 | 0.25 | 0.19 | 93 | 1007.1 |
| 20260507083628 | 50 | 33 | 5.0 | 10.0 | 0.10 | 0.25 | 0.19 | 93 | 1007.0 |
| 20260507083133 | 50 | 327 | 6.0 | 9.0 | 0.12 | 0.24 | 0.18 | 93 | 1007.0 |
| 20260507082627 | 50 | 315 | 3.0 | 11.0 | 0.15 | 0.24 | 0.18 | 93 | 1007.0 |
| 20260507082150 | 50 | 315 | 3.0 | 11.0 | 0.18 | 0.24 | 0.18 | 93 | 1007.1 |
| 20260507081638 | 50 | 348 | 4.0 | 12.0 | 0.17 | 0.23 | 0.17 | 92 | 1007.1 |
| 20260507081129 | 51 | 49 | 4.0 | 12.0 | 0.17 | 0.23 | 0.17 | 93 | 1006.7 |
| 20260507080651 | 51 | 298 | 4.0 | 9.0 | 0.16 | 0.22 | 0.16 | 93 | 1006.9 |
| 20260507080140 | 51 | 304 | 1.0 | 8.0 | 0.15 | 0.21 | 0.15 | 93 | 1007.3 |
| 20260507075653 | 52 | 240 | 4.0 | 8.0 | 0.14 | 0.20 | 0.14 | 92 | 1007.4 |
| 20260507075202 | 52 | 5 | 4.0 | 13.0 | 0.14 | 0.20 | 0.14 | 92 | 1007.2 |
| 20260507074709 | 52 | 340 | 6.0 | 13.0 | 0.13 | 0.19 | 0.13 | 91 | 1007.4 |
| 20260507074130 | 53 | 325 | 4.0 | 12.0 | 0.11 | 0.17 | 0.11 | 91 | 1007.1 |
| 20260507073618 | 53 | 331 | 5.0 | 17.0 | 0.09 | 0.15 | 0.09 | 90 | 1007.2 |
| 20260507073130 | 54 | 294 | 8.0 | 17.0 | 0.05 | 0.11 | 0.05 | 88 | 1007.0 |
| 20260507072636 | 54 | 266 | 7.0 | 15.0 | 0.02 | 0.08 | 0.02 | 87 | 1006.8 |
| 20260507072144 | 54 | 313 | 4.0 | 10.0 | 0.00 | 0.06 | 0.00 | 87 | 1006.2 |
| 20260507071645 | 54 | 298 | 3.0 | 12.0 | 0.00 | 0.06 | 0.00 | 87 | 1005.8 |
| 20260507071136 | 55 | 355 | 1.0 | 12.0 | 0.00 | 0.06 | 0.00 | 89 | 1006.0 |
| 20260507070624 | 55 | 294 | 1.0 | 14.0 | 0.00 | 0.06 | 0.00 | 89 | 1005.9 |
| 20260507070146 | 55 | 350 | 5.0 | 14.0 | 0.00 | 0.06 | 0.00 | 89 | 1006.0 |
| 20260507065634 | 55 | 360 | 4.0 | 15.0 | 0.00 | 0.06 | 0.00 | 89 | 1006.0 |
| 20260507065125 | 55 | 327 | 7.0 | 15.0 | 0.00 | 0.06 | 0.00 | 90 | 1005.9 |
| 20260507064647 | 55 | 294 | 4.0 | 14.0 | 0.00 | 0.06 | 0.00 | 89 | 1006.1 |
| 20260507064133 | 55 | 27 | 6.0 | 12.0 | 0.00 | 0.06 | 0.00 | 90 | 1006.1 |
| 20260507063622 | 56 | 38 | 2.0 | 11.0 | 0.00 | 0.06 | 0.00 | 92 | 1006.1 |
| 20260507063147 | 56 | 19 | 2.0 | 12.0 | 0.00 | 0.06 | 0.00 | 92 | 1006.1 |
| 20260507062634 | 56 | 329 | 6.0 | 12.0 | 0.00 | 0.06 | 0.00 | 92 | 1006.1 |
| 20260507062123 | 56 | 333 | 4.0 | 11.0 | 0.00 | 0.06 | 0.00 | 93 | 1006.1 |
| 20260507061630 | 56 | 346 | 5.0 | 12.0 | 0.00 | 0.06 | 0.00 | 93 | 1006.1 |
| 20260507061157 | 56 | 328 | 6.0 | 12.0 | 0.00 | 0.06 | 0.00 | 93 | 1006.1 |
| 20260507060633 | 56 | 321 | 3.0 | 11.0 | 0.00 | 0.06 | 0.00 | 93 | 1006.3 |
| 20260507060129 | 56 | 327 | 3.0 | 12.0 | 0.00 | 0.06 | 0.00 | 93 | 1006.3 |
| 20260507055632 | 56 | 322 | 4.0 | 12.0 | 0.00 | 0.06 | 0.00 | 93 | 1006.3 |
| 20260507055137 | 56 | 350 | 1.0 | 12.0 | 0.00 | 0.06 | 0.00 | 93 | 1006.5 |
| 20260507054629 | 57 | 341 | 4.0 | 12.0 | 0.00 | 0.06 | 0.00 | 94 | 1006.4 |
| 20260507054134 | 57 | 294 | 3.0 | 11.0 | 0.00 | 0.06 | 0.00 | 94 | 1006.6 |
| 20260507053626 | 57 | 336 | 6.0 | 11.0 | 0.00 | 0.06 | 0.00 | 95 | 1006.5 |
| 20260507053131 | 58 | 306 | 3.0 | 13.0 | 0.00 | 0.06 | 0.00 | 95 | 1006.5 |
| 20260507052635 | 58 | 304 | 4.0 | 9.0 | 0.00 | 0.06 | 0.00 | 96 | 1006.6 |
| 20260507052141 | 58 | 336 | 2.0 | 6.0 | 0.00 | 0.06 | 0.00 | 96 | 1006.5 |
| 20260507051631 | 58 | 306 | 1.0 | 4.0 | 0.00 | 0.06 | 0.00 | 96 | 1006.8 |
| 20260507051155 | 58 | 258 | 2.0 | 4.0 | 0.00 | 0.06 | 0.00 | 96 | 1006.6 |
| 20260507050650 | 58 | 265 | 0.0 | 7.0 | 0.00 | 0.06 | 0.00 | 96 | 1006.5 |
| 20260507050152 | 58 | 271 | 1.0 | 7.0 | 0.00 | 0.06 | 0.00 | 96 | 1006.6 |
| 20260507045622 | 58 | 346 | 2.0 | 5.0 | 0.00 | 0.06 | 0.00 | 96 | 1006.6 |
| 20260507045145 | 58 | 235 | 2.0 | 8.0 | 0.00 | 0.06 | 0.00 | 96 | 1006.8 |
| 20260507044635 | 58 | 239 | 3.0 | 8.0 | 0.00 | 0.06 | 0.00 | 96 | 1006.7 |
| 20260507044127 | 58 | 234 | 2.0 | 5.0 | 0.00 | 0.06 | 0.00 | 96 | 1006.7 |
| 20260507043652 | 58 | 246 | 2.0 | 7.0 | 0.00 | 0.06 | 0.00 | 96 | 1006.6 |
| 20260507043158 | 58 | 260 | 1.0 | 7.0 | 0.00 | 0.06 | 0.00 | 96 | 1006.5 |
| 20260507042631 | 58 | 237 | 2.0 | 8.0 | 0.00 | 0.06 | 0.00 | 96 | 1006.6 |
| 20260507042153 | 58 | 259 | 1.0 | 5.0 | 0.00 | 0.06 | 0.00 | 96 | 1006.6 |
| 20260507041625 | 58 | 304 | 1.0 | 4.0 | 0.00 | 0.06 | 0.00 | 96 | 1006.4 |
| 20260507041134 | 58 | 297 | 1.0 | 7.0 | 0.00 | 0.06 | 0.00 | 96 | 1006.6 |
| 20260507040624 | 58 | 240 | 3.0 | 9.0 | 0.00 | 0.06 | 0.00 | 96 | 1006.7 |
| 20260507040130 | 58 | 256 | 2.0 | 9.0 | 0.00 | 0.06 | 0.06 | 96 | 1006.7 |
| 20260507035624 | 58 | 211 | 3.0 | 8.0 | 0.00 | 0.06 | 0.06 | 96 | 1006.6 |
| 20260507035134 | 58 | 259 | 1.0 | 6.0 | 0.00 | 0.06 | 0.06 | 96 | 1006.6 |
| 20260507034648 | 58 | 261 | 2.0 | 6.0 | 0.00 | 0.06 | 0.06 | 96 | 1006.6 |
| 20260507034137 | 58 | 229 | 2.0 | 7.0 | 0.00 | 0.06 | 0.06 | 96 | 1006.6 |
| 20260507033625 | 58 | 250 | 2.0 | 11.0 | 0.00 | 0.06 | 0.06 | 96 | 1006.6 |
| 20260507033131 | 58 | 225 | 5.0 | 12.0 | 0.00 | 0.06 | 0.06 | 96 | 1006.9 |
| 20260507032638 | 58 | 208 | 4.0 | 12.0 | 0.00 | 0.06 | 0.06 | 96 | 1006.8 |
| 20260507032126 | 57 | 200 | 5.0 | 10.0 | 0.00 | 0.06 | 0.06 | 96 | 1006.7 |
| 20260507031639 | 57 | 262 | 3.0 | 12.0 | 0.00 | 0.06 | 0.06 | 96 | 1006.5 |
| 20260507031143 | 57 | 204 | 7.0 | 12.0 | 0.00 | 0.06 | 0.06 | 96 | 1006.4 |
| 20260507030630 | 57 | 218 | 5.0 | 11.0 | 0.00 | 0.06 | 0.06 | 96 | 1006.6 |
| 20260507030139 | 57 | 198 | 5.0 | 10.0 | 0.00 | 0.06 | 0.06 | 96 | 1006.5 |
| 20260507025651 | 57 | 224 | 4.0 | 11.0 | 0.00 | 0.06 | 0.06 | 96 | 1006.4 |
| 20260507025138 | 57 | 247 | 3.0 | 11.0 | 0.00 | 0.06 | 0.06 | 96 | 1006.5 |
| 20260507024624 | 57 | 242 | 4.0 | 11.0 | 0.00 | 0.06 | 0.06 | 96 | 1006.5 |
| 20260507024128 | 57 | 242 | 4.0 | 11.0 | 0.00 | 0.06 | 0.06 | 96 | 1006.4 |
| 20260507023632 | 57 | 211 | 5.0 | 9.0 | 0.00 | 0.06 | 0.06 | 96 | 1006.4 |
| 20260507023121 | 57 | 213 | 4.0 | 9.0 | 0.00 | 0.06 | 0.06 | 96 | 1006.5 |
| 20260507022631 | 57 | 240 | 4.0 | 9.0 | 0.00 | 0.06 | 0.06 | 96 | 1006.5 |
| 20260507022136 | 57 | 243 | 3.0 | 10.0 | 0.00 | 0.06 | 0.06 | 96 | 1006.6 |
| 20260507021652 | 57 | 192 | 6.0 | 11.0 | 0.00 | 0.06 | 0.06 | 96 | 1006.6 |
| 20260507021150 | 57 | 242 | 3.0 | 11.0 | 0.00 | 0.06 | 0.06 | 96 | 1006.5 |
| 20260507020639 | 57 | 180 | 5.0 | 11.0 | 0.00 | 0.06 | 0.06 | 96 | 1006.3 |
| 20260507020132 | 57 | 209 | 5.0 | 11.0 | 0.00 | 0.06 | 0.06 | 96 | 1006.4 |
| 20260507015622 | 57 | 224 | 7.0 | 11.0 | 0.00 | 0.06 | 0.06 | 96 | 1006.6 |
| 20260507015151 | 57 | 205 | 6.0 | 11.0 | 0.00 | 0.06 | 0.06 | 96 | 1006.6 |
| 20260507014635 | 57 | 229 | 5.0 | 10.0 | 0.00 | 0.06 | 0.06 | 96 | 1006.6 |
| 20260507014125 | 57 | 192 | 6.0 | 12.0 | 0.00 | 0.06 | 0.06 | 96 | 1006.7 |
| 20260507013651 | 57 | 219 | 7.0 | 12.0 | 0.00 | 0.06 | 0.06 | 96 | 1006.6 |
| 20260507013122 | 57 | 203 | 6.0 | 12.0 | 0.00 | 0.06 | 0.06 | 96 | 1006.7 |
| 20260507012626 | 57 | 166 | 7.0 | 14.0 | 0.00 | 0.06 | 0.06 | 96 | 1006.8 |
| 20260507012150 | 57 | 218 | 4.0 | 14.0 | 0.00 | 0.06 | 0.06 | 96 | 1006.9 |
| 20260507011635 | 57 | 210 | 7.0 | 12.0 | 0.00 | 0.06 | 0.06 | 96 | 1007.0 |
| 20260507011125 | 57 | 226 | 5.0 | 12.0 | 0.00 | 0.06 | 0.06 | 96 | 1007.0 |
| 20260507010632 | 57 | 231 | 4.0 | 12.0 | 0.00 | 0.06 | 0.06 | 96 | 1006.9 |
| 20260507010122 | 57 | 216 | 8.0 | 13.0 | 0.00 | 0.06 | 0.06 | 96 | 1007.0 |
| 20260507005628 | 56 | 217 | 5.0 | 11.0 | 0.00 | 0.06 | 0.06 | 96 | 1007.0 |
| 20260507005148 | 56 | 219 | 7.0 | 12.0 | 0.00 | 0.06 | 0.06 | 96 | 1007.0 |
| 20260507004636 | 56 | 228 | 7.0 | 12.0 | 0.00 | 0.06 | 0.06 | 95 | 1007.0 |
| 20260507004124 | 56 | 229 | 5.0 | 10.0 | 0.00 | 0.06 | 0.06 | 95 | 1007.0 |
| 20260507003618 | 56 | 173 | 4.0 | 14.0 | 0.00 | 0.06 | 0.06 | 95 | 1006.9 |
| 20260507003123 | 56 | 242 | 9.0 | 13.0 | 0.00 | 0.06 | 0.06 | 95 | 1006.9 |
| 20260507002633 | 56 | 210 | 8.0 | 16.0 | 0.01 | 0.06 | 0.06 | 95 | 1006.8 |
| 20260507002155 | 56 | 223 | 7.0 | 14.0 | 0.01 | 0.06 | 0.06 | 95 | 1006.8 |
| 20260507001623 | 56 | 238 | 8.0 | 15.0 | 0.01 | 0.06 | 0.06 | 95 | 1006.9 |
| 20260507001136 | 56 | 197 | 9.0 | 18.0 | 0.01 | 0.06 | 0.06 | 95 | 1006.9 |
| 20260507000625 | 56 | 215 | 4.0 | 17.0 | 0.01 | 0.06 | 0.06 | 95 | 1006.8 |
| 20260507000148 | 56 | 205 | 6.0 | 17.0 | 0.01 | 0.06 | 0.06 | 95 | 1006.8 |
| 20260506235622 | 56 | 245 | 7.0 | 16.0 | 0.01 | 0.06 | 0.06 | 95 | 1006.8 |
| 20260506235131 | 56 | 207 | 6.0 | 18.0 | 0.02 | 0.06 | 0.06 | 95 | 1006.7 |
| 20260506234621 | 56 | 210 | 8.0 | 18.0 | 0.02 | 0.06 | 0.06 | 95 | 1006.7 |
| 20260506234143 | 56 | 230 | 6.0 | 13.0 | 0.02 | 0.06 | 0.06 | 95 | 1006.6 |
| 20260506233653 | 56 | 219 | 5.0 | 14.0 | 0.02 | 0.06 | 0.06 | 95 | 1006.6 |
| 20260506233143 | 56 | 199 | 7.0 | 17.0 | 0.03 | 0.06 | 0.06 | 95 | 1006.5 |
| 20260506232634 | 57 | 219 | 5.0 | 17.0 | 0.02 | 0.05 | 0.05 | 95 | 1006.6 |
| 20260506232124 | 57 | 209 | 6.0 | 13.0 | 0.02 | 0.05 | 0.05 | 94 | 1006.7 |
| 20260506231647 | 57 | 202 | 5.0 | 13.0 | 0.02 | 0.05 | 0.05 | 94 | 1006.7 |
| 20260506231138 | 57 | 197 | 3.0 | 14.0 | 0.02 | 0.05 | 0.05 | 94 | 1006.8 |
| 20260506230624 | 57 | 228 | 4.0 | 16.0 | 0.02 | 0.05 | 0.05 | 94 | 1006.8 |
| 20260506230147 | 57 | 254 | 5.0 | 16.0 | 0.02 | 0.05 | 0.05 | 94 | 1006.9 |
| 20260506225636 | 57 | 190 | 4.0 | 14.0 | 0.02 | 0.05 | 0.05 | 94 | 1006.8 |
| 20260506225122 | 57 | 210 | 5.0 | 14.0 | 0.02 | 0.04 | 0.04 | 94 | 1006.7 |
| 20260506224648 | 57 | 180 | 3.0 | 14.0 | 0.02 | 0.04 | 0.04 | 94 | 1006.7 |
| 20260506224136 | 57 | 191 | 5.0 | 18.0 | 0.02 | 0.04 | 0.04 | 94 | 1006.6 |
| 20260506223635 | 57 | 225 | 5.0 | 14.0 | 0.01 | 0.03 | 0.03 | 94 | 1006.6 |
| 20260506223153 | 58 | 207 | 5.0 | 15.0 | 0.02 | 0.03 | 0.03 | 94 | 1006.7 |
| 20260506222700 | 58 | 192 | 7.0 | 15.0 | 0.02 | 0.03 | 0.03 | 94 | 1006.6 |
| 20260506222128 | 58 | 205 | 5.0 | 15.0 | 0.02 | 0.03 | 0.03 | 94 | 1006.7 |
| 20260506221650 | 58 | 204 | 6.0 | 15.0 | 0.02 | 0.03 | 0.03 | 93 | 1006.8 |
| 20260506221122 | 58 | 170 | 4.0 | 14.0 | 0.02 | 0.03 | 0.03 | 93 | 1006.9 |
| 20260506220641 | 58 | 360 | 7.0 | 15.0 | 0.02 | 0.03 | 0.03 | 93 | 1007.0 |
| 20260506220131 | 58 | 200 | 7.0 | 12.0 | 0.02 | 0.03 | 0.03 | 93 | 1007.1 |
| 20260506215623 | 59 | 193 | 4.0 | 14.0 | 0.02 | 0.03 | 0.03 | 92 | 1007.1 |
| 20260506215145 | 59 | 191 | 9.0 | 16.0 | 0.01 | 0.02 | 0.02 | 92 | 1007.1 |
| 20260506214636 | 59 | 212 | 7.0 | 18.0 | 0.01 | 0.02 | 0.02 | 92 | 1007.0 |
| 20260506214147 | 60 | 209 | 4.0 | 18.0 | 0.01 | 0.02 | 0.02 | 91 | 1007.1 |
| 20260506213649 | 60 | 200 | 4.0 | 21.0 | 0.01 | 0.02 | 0.02 | 91 | 1007.2 |
| 20260506213154 | 60 | 204 | 12.0 | 21.0 | 0.00 | 0.01 | 0.01 | 91 | 1007.3 |
| 20260506212645 | 60 | 237 | 9.0 | 21.0 | 0.00 | 0.01 | 0.01 | 90 | 1007.3 |
| 20260506212132 | 60 | 198 | 12.0 | 22.0 | 0.00 | 0.01 | 0.01 | 90 | 1007.2 |
| 20260506211635 | 60 | 216 | 11.0 | 22.0 | 0.00 | 0.01 | 0.01 | 90 | 1007.4 |
| 20260506211158 | 60 | 228 | 10.0 | 22.0 | 0.00 | 0.01 | 0.01 | 90 | 1007.4 |
| 20260506210627 | 60 | 242 | 6.0 | 20.0 | 0.00 | 0.01 | 0.01 | 91 | 1007.5 |
| 20260506210156 | 60 | 244 | 9.0 | 20.0 | 0.00 | 0.01 | 0.01 | 91 | 1007.5 |
| 20260506205623 | 60 | 161 | 7.0 | 21.0 | 0.00 | 0.01 | 0.01 | 91 | 1007.4 |
| 20260506205127 | 60 | 234 | 8.0 | 21.0 | 0.00 | 0.01 | 0.01 | 91 | 1007.4 |
| 20260506204652 | 60 | 222 | 10.0 | 21.0 | 0.00 | 0.01 | 0.01 | 91 | 1007.5 |
| 20260506204140 | 60 | 222 | 8.0 | 23.0 | 0.00 | 0.01 | 0.01 | 90 | 1007.6 |
| 20260506203629 | 60 | 219 | 7.0 | 23.0 | 0.01 | 0.01 | 0.01 | 90 | 1007.5 |
| 20260506203155 | 61 | 245 | 8.0 | 23.0 | 0.01 | 0.01 | 0.01 | 90 | 1007.7 |
| 20260506202645 | 61 | 232 | 6.0 | 23.0 | 0.01 | 0.01 | 0.01 | 90 | 1007.7 |
| 20260506202155 | 61 | 210 | 7.0 | 19.0 | 0.01 | 0.01 | 0.01 | 90 | 1007.7 |
| 20260506201658 | 61 | 198 | 12.0 | 23.0 | 0.01 | 0.01 | 0.01 | 89 | 1007.6 |
| 20260506201126 | 61 | 228 | 10.0 | 23.0 | 0.01 | 0.01 | 0.01 | 89 | 1007.8 |
| 20260506200650 | 61 | 198 | 11.0 | 23.0 | 0.01 | 0.01 | 0.01 | 89 | 1007.8 |
| 20260506200141 | 61 | 226 | 12.0 | 23.0 | 0.01 | 0.01 | 0.01 | 89 | 1007.9 |
| 20260506195626 | 61 | 190 | 9.0 | 25.0 | 0.01 | 0.01 | 0.01 | 88 | 1007.7 |
| 20260506195149 | 62 | 232 | 7.0 | 25.0 | 0.01 | 0.01 | 0.01 | 88 | 1007.8 |
| 20260506194656 | 62 | 218 | 13.0 | 24.0 | 0.01 | 0.01 | 0.01 | 87 | 1007.7 |
| 20260506194123 | 62 | 210 | 8.0 | 18.0 | 0.01 | 0.01 | 0.01 | 87 | 1007.8 |
| 20260506193626 | 62 | 213 | 8.0 | 19.0 | 0.00 | 0.00 | 0.00 | 85 | 1007.9 |
| 20260506193128 | 63 | 232 | 7.0 | 18.0 | 0.00 | 0.00 | 0.00 | 84 | 1007.9 |
| 20260506192651 | 63 | 225 | 4.0 | 22.0 | 0.00 | 0.00 | 0.00 | 84 | 1008.0 |
| 20260506192138 | 63 | 202 | 12.0 | 22.0 | 0.00 | 0.00 | 0.00 | 82 | 1007.9 |
| 20260506191632 | 64 | 196 | 9.0 | 24.0 | 0.00 | 0.00 | 0.00 | 81 | 1007.9 |
| 20260506191155 | 64 | 219 | 12.0 | 33.0 | 0.00 | 0.00 | 0.00 | 79 | 1008.0 |
| 20260506190700 | 65 | 219 | 13.0 | 23.0 | 0.00 | 0.00 | 0.00 | 77 | 1008.0 |
| 20260506190127 | 65 | 261 | 9.0 | 23.0 | 0.00 | 0.00 | 0.00 | 76 | 1008.0 |
| 20260506185631 | 65 | 243 | 9.0 | 23.0 | 0.00 | 0.00 | 0.00 | 75 | 1008.1 |
| 20260506185158 | 65 | 221 | 16.0 | 23.0 | 0.00 | 0.00 | 0.00 | 75 | 1008.2 |
| 20260506184640 | 66 | 198 | 12.0 | 25.0 | 0.00 | 0.00 | 0.00 | 75 | 1008.0 |
| 20260506184127 | 66 | 222 | 9.0 | 23.0 | 0.00 | 0.00 | 0.00 | 75 | 1007.9 |
| 20260506183640 | 66 | 196 | 13.0 | 29.0 | 0.00 | 0.00 | 0.00 | 74 | 1008.1 |
| 20260506183146 | 66 | 202 | 13.0 | 29.0 | 0.00 | 0.00 | 0.00 | 73 | 1008.1 |
| 20260506182632 | 66 | 236 | 12.0 | 22.0 | 0.00 | 0.00 | 0.00 | 73 | 1008.2 |